Location: Tucson
(32.2217°N, 110.9265°W)
Time: 16:41:06
(UTC-07:00)

BlueWalker 3 - Visible Passes

Search period start: 30 November 2022 00:00
Search period end: 10 December 2022 00:00
Orbit: 500 x 519 km, 53.2° (Epoch: 30 November)

Date Brightness Start Highest point End Pass type
(mag) Time Alt. Az. Time Alt. Az. Time Alt. Az.
08 Dec 4.1 18:25:06 10° N 18:26:06 12° NNE 18:26:06 12° NNE visible
09 Dec 3.9 18:06:30 10° N 18:08:21 13° NNE 18:09:05 12° NE visible
09 Dec 4.8 19:43:34 10° NW 19:43:57 12° NW 19:43:57 12° NW visible
